Dewpoint
72 72 69 67 51 47 46 48 51 51 54 58 58 55 58 60 54 51 66 67 67 68 70 71 73 72 72 72 72 71 71 72 72 73 73 72 72 73 74 74 74 73 73 72 72 71 71 71 71
71 68 68 64 46 43 47 50 50 52 58 59 60 59 58 58 62 64 65 68 68 68 70 70 73 73 72 72 72 71 71 72 73 74 73 73 73 73 73 73 73 73 73 72 72 72 71 71 71
68 67 63 50 47 44 46 51 52 56 59 58 58 60 59 60 63 64 67 69 70 70 71 72 73 73 73 73 72 72 73 73 73 73 73 73 73 73 73 73 72 73 72 72 72 71 71 71 71
66 64 58 44 44 50 50 52 56 57 59 59 57 57 61 63 63 66 69 70 70 71 71 73 73 72 73 73 72 73 73 73 73 73 73 73 73 73 72 72 72 72 72 72 71 71 71 71 71
63 56 43 45 48 52 52 53 55 56 58 58 58 57 59 67 67 68 69 69 69 70 72 72 73 73 73 73 73 73 72 72 73 73 72 73 73 73 72 73 72 72 72 71 71 71 71 71 70
56 49 42 39 48 53 52 55 57 58 59 59 58 57 62 67 66 67 68 69 69 69 71 71 73 73 73 72 72 72 72 72 73 72 72 72 73 73 73 72 72 72 71 71 71 71 71 72 72
51 45 43 47 48 50 53 55 57 58 58 58 59 56 63 64 65 67 68 69 69 70 70 71 72 73 73 73 73 73 73 73 73 73 73 73 73 73 73 72 72 71 71 71 71 71 70 69 70
50 43 45 47 44 45 54 57 59 58 57 61 59 57 60 64 66 67 68 68 68 70 71 72 72 72 71 72 73 73 73 73 73 73 73 73 73 72 72 72 72 71 71 70 70 70 69 69 69
49 40 43 46 46 46 55 56 59 60 59 59 61 60 61 66 66 66 67 68 69 70 71 71 71 71 72 71 71 72 73 72 73 73 73 73 70 70 71 72 71 69 70 70 71 70 69 70 70
48 39 40 46 48 48 55 56 58 58 56 58 62 63 66 65 65 63 64 65 67 68 70 70 70 70 71 70 71 71 71 69 71 71 72 71 71 72 71 71 71 71 72 71 71 70 69 70 68
47 39 42 44 49 51 54 56 57 55 53 57 61 63 64 65 64 62 63 64 65 67 68 70 72 72 71 71 72 72 71 70 71 73 72 73 71 71 71 70 70 70 70 69 69 69 68 69 69
40 46 43 44 50 52 53 55 54 54 53 57 61 63 64 64 64 63 63 64 65 67 68 69 71 73 72 71 70 71 70 71 70 70 72 71 70 70 70 71 70 71 70 70 70 69 70 69 70
34 39 44 47 49 51 53 53 51 53 59 60 62 64 64 64 65 65 64 65 66 67 68 70 71 72 73 73 70 70 70 69 70 70 70 70 69 69 71 71 70 71 71 69 71 70 70 69 69
38 43 49 48 49 52 50 53 53 55 60 61 62 62 63 64 65 65 65 66 67 67 68 70 71 72 73 72 73 71 71 70 71 71 69 71 70 70 72 71 71 70 70 70 70 71 70 69 69
45 45 48 48 49 50 51 52 52 55 59 60 61 62 63 64 65 65 65 66 66 67 67 68 70 71 72 72 72 71 71 71 70 70 71 72 72 71 71 70 69 70 70 71 70 71 69 69 68
43 43 40 48 48 51 48 42 51 58 58 58 59 61 62 63 65 66 66 66 66 67 67 68 67 69 71 71 71 71 71 71 71 72 72 73 73 73 72 71 70 70 71 69 70 69 68 67 66
42 36 40 46 47 50 49 45 50 57 57 58 59 59 61 63 64 65 66 67 67 68 68 68 69 69 70 71 71 72 73 72 71 72 72 72 71 72 72 71 71 72 70 70 69 68 67 64 64
36 38 40 43 47 48 48 47 52 57 57 58 59 59 61 62 64 65 66 67 67 68 69 69 69 70 72 71 72 72 72 72 72 72 72 72 70 70 70 71 70 71 70 68 67 66 65 65 64
36 37 38 45 47 46 46 47 50 56 57 57 59 60 60 61 62 64 65 66 67 68 68 69 69 71 72 71 70 70 70 70 71 72 72 72 70 70 70 70 70 70 67 66 67 65 64 62 65
38 37 37 43 47 45 45 45 49 53 56 57 58 59 60 61 62 64 65 65 66 67 68 69 70 71 72 71 70 70 70 71 71 71 72 72 72 72 71 70 69 69 66 67 66 65 61 62 66
36 37 39 38 44 47 45 43 46 52 54 55 56 56 58 59 60 61 62 64 65 66 68 69 70 71 71 71 71 72 71 71 70 70 71 71 72 72 72 70 69 69 67 63 65 64 64 59 63
23 38 40 40 41 38 45 36 43 48 52 53 53 54 55 56 58 58 60 62 63 65 67 69 70 71 71 72 70 70 68 67 68 69 69 71 72 71 71 70 69 68 65 64 65 64 64 63 59
23 33 36 39 39 40 43 40 37 49 49 50 52 53 54 54 55 56 58 59 62 64 65 67 70 71 71 72 71 70 69 69 69 68 68 69 70 71 71 70 68 67 64 66 65 65 65 63 62
27 29 34 39 37 36 36 40 32 43 47 47 49 52 53 53 54 55 57 59 61 63 64 66 69 70 71 71 71 71 70 70 68 67 66 66 66 65 67 67 67 67 66 65 64 64 64 64 64
24 26 25 27 33 27 32 40 36 37 43 45 46 50 52 53 53 55 56 58 61 62 64 65 68 69 70 70 71 71 71 71 69 68 65 64 63 62 64 66 67 66 66 65 64 64 63 63 62
23 20 21 22 23 24 34 34 35 41 41 44 47 48 51 52 54 55 57 59 61 62 64 65 66 67 69 69 71 71 71 70 69 69 65 63 62 61 65 66 66 66 64 64 64 63 63 63 63
22 21 22 21 22 23 26 34 34 38 38 40 42 45 49 52 54 54 56 59 60 62 64 65 66 67 68 68 70 71 71 70 69 68 66 63 62 62 65 65 66 64 63 63 64 62 63 64 64
19 21 17 19 19 17 20 24 19 28 31 37 40 42 46 50 53 55 56 59 61 62 64 65 66 67 68 68 69 70 70 70 70 67 63 63 63 63 65 65 64 64 63 64 64 62 62 63 62
16 17 20 20 20 19 18 18 28 26 29 29 32 38 41 47 52 54 58 59 61 62 63 64 66 67 68 69 69 70 69 69 65 64 62 62 64 64 65 65 64 63 63 64 64 63 63 63 62
9 13 17 17 22 19 18 17 26 29 29 33 31 34 42 47 50 54 57 59 60 62 62 63 65 65 67 68 69 69 68 64 65 62 62 63 63 63 63 64 64 64 63 63 64 63 61 62 61
Wind_Speed
10 8 4 2 1 7 10 5 4 9 4 3 5 4 9 9 3 11 8 7 14 14 13 16 16 16 15 13 13 15 16 16 16 15 13 12 12 10 10 9 9 9 9 8 8 8 9 9 9
9 3 1 1 5 9 4 3 9 6 8 12 11 6 7 6 6 13 11 10 14 13 11 13 15 15 16 16 16 16 16 16 16 15 13 11 10 10 9 8 7 7 7 7 7 7 8 8 8
9 4 2 3 4 7 6 7 9 14 7 4 5 9 4 4 10 13 13 15 15 13 13 13 14 16 16 17 17 17 17 17 15 14 13 11 10 9 7 6 6 5 6 6 6 6 7 7 7
4 1 1 4 8 7 5 15 18 13 7 6 11 11 7 9 5 9 17 17 17 15 14 15 17 18 19 20 19 17 16 15 14 13 12 10 9 8 6 5 4 5 4 5 5 7 7 7 6
3 1 1 5 6 7 12 15 14 7 6 8 4 8 10 5 14 19 17 16 17 16 14 15 16 16 16 17 17 15 15 14 13 12 10 8 7 6 5 3 2 3 3 4 5 6 7 6 7
3 1 3 6 6 7 9 13 8 5 9 10 15 13 5 11 17 16 16 16 15 16 14 15 14 15 16 16 15 14 14 13 12 11 9 8 7 6 4 2 1 2 2 4 6 7 6 6 6
2 1 4 5 6 6 6 12 8 9 8 8 14 11 7 12 16 16 15 15 14 14 14 13 14 15 15 14 14 13 13 12 11 10 8 7 5 4 2 1 3 4 5 6 7 7 6 5 6
3 1 6 4 8 5 10 8 9 8 5 12 13 8 11 17 17 16 15 14 13 13 12 12 12 14 14 14 13 12 11 11 9 8 7 5 4 3 3 4 3 6 7 7 7 7 5 5 6
4 2 7 8 10 6 13 8 7 6 15 4 6 10 14 22 19 18 16 14 13 12 12 13 13 13 12 11 11 10 9 9 7 7 6 6 4 4 4 4 6 9 9 9 9 7 5 5 3
6 4 12 11 11 11 14 12 11 5 17 6 7 15 24 23 21 21 20 17 16 16 14 13 13 13 12 10 9 9 7 7 6 6 6 5 5 5 6 7 7 9 8 8 9 7 4 3 4
4 4 7 10 14 18 16 12 10 10 15 12 14 24 27 23 21 20 19 17 17 15 13 14 13 13 12 10 10 8 8 7 7 7 6 5 5 5 5 6 5 4 4 5 5 5 3 3 4
5 4 8 10 16 19 21 14 9 17 3 12 21 28 25 23 21 20 19 19 18 16 15 14 13 12 12 10 11 9 9 8 8 8 8 7 7 7 6 6 4 4 4 4 5 5 5 3 3
5 4 6 5 17 18 19 17 9 16 4 16 25 27 25 24 22 19 17 16 17 18 17 16 15 14 13 13 10 10 10 11 10 9 10 9 9 8 6 6 6 5 4 5 4 4 5 6 5
5 6 8 10 16 19 20 12 12 12 14 21 26 26 24 23 21 17 16 17 18 18 18 17 17 16 15 14 13 11 11 11 11 11 11 12 10 9 8 8 7 5 4 5 5 4 5 5 6
13 10 11 12 17 10 17 10 16 15 18 22 24 23 23 22 20 22 22 21 21 20 18 19 18 17 17 16 14 13 12 12 12 12 11 12 12 12 12 11 8 6 4 5 6 5 5 6 5
5 7 8 10 15 11 19 16 15 20 23 23 23 22 23 22 24 21 21 20 19 18 20 19 17 18 18 17 15 13 11 11 11 10 9 11 12 12 10 8 7 6 5 5 5 4 5 4 4
4 9 12 11 13 10 16 8 15 21 22 23 24 24 23 21 22 22 22 21 20 20 19 20 19 19 20 17 14 12 10 10 10 10 9 6 9 10 9 8 5 5 5 5 2 2 4 5 6
15 11 10 11 16 10 16 11 7 19 22 24 24 24 24 23 25 23 23 22 20 20 20 18 18 18 16 13 11 10 10 10 9 10 10 9 8 7 8 5 5 6 5 4 2 3 4 5 6
18 18 19 10 11 14 17 15 8 17 21 23 23 24 25 26 26 24 24 23 20 20 20 21 20 20 15 14 12 13 14 12 11 11 12 11 10 9 6 4 7 7 6 2 1 3 4 4 4
18 18 18 9 13 14 13 17 13 18 28 26 25 26 26 26 24 24 24 23 23 24 25 22 22 20 19 16 13 10 9 10 10 9 9 9 9 10 8 8 8 7 6 4 1 2 4 3 3
15 22 17 17 15 5 6 19 19 16 22 23 26 26 25 27 26 25 26 26 26 25 24 24 23 22 20 18 12 8 5 3 6 9 9 10 10 8 8 9 8 8 5 3 2 1 2 4 1
22 18 20 20 15 20 14 19 14 20 22 27 28 28 29 28 26 25 26 27 27 27 25 24 23 22 21 19 17 16 15 15 12 9 8 8 9 8 9 10 9 8 6 5 3 2 1 2 3
16 14 22 22 23 13 10 11 20 9 21 30 33 33 33 30 29 28 28 28 27 27 26 25 23 23 21 20 20 18 18 14 8 6 6 6 6 8 10 10 9 8 7 5 5 4 4 3 2
11 14 7 6 14 15 22 20 20 13 21 29 30 32 33 32 31 30 30 27 26 25 26 25 24 24 22 22 22 21 19 16 11 9 9 8 8 8 8 9 8 8 6 6 6 6 5 3 3
18 20 12 12 12 14 16 17 25 14 25 29 26 33 37 34 32 32 30 28 27 28 28 26 25 26 23 24 24 24 22 19 16 13 12 12 11 10 11 11 10 8 7 7 7 7 5 6 5
27 27 19 23 16 16 5 15 22 21 30 17 19 18 26 32 34 33 30 31 30 30 28 27 27 27 25 25 24 20 20 19 15 16 14 14 13 11 9 12 10 9 8 8 7 7 6 6 6
20 20 22 12 1 12 11 8 13 17 19 20 27 20 25 31 35 38 34 33 31 28 30 32 29 26 26 24 21 22 21 20 18 16 13 13 10 10 11 12 12 10 9 10 9 7 6 6 7
22 21 17 14 24 22 11 7 11 9 17 21 20 23 27 30 31 34 35 33 30 31 32 28 28 32 29 24 23 22 22 19 12 7 11 12 12 9 10 12 11 11 11 10 9 8 8 8 9
11 14 8 12 16 26 26 22 12 17 18 16 20 22 26 25 31 33 32 31 31 30 26 28 29 28 26 26 25 23 21 16 12 14 13 12 8 8 9 11 12 13 12 11 10 9 9 10 10
32 26 24 21 17 11 18 24 6 19 18 15 20 19 13 20 26 29 29 29 29 28 28 30 31 30 31 27 24 23 17 22 23 12 8 11 9 7 8 11 13 14 13 11 10 11 10 12 12
Wind_Direction
143 157 188 273 87 104 105 133 120 145 140 78 76 86 94 47 65 123 136 134 141 138 136 134 136 140 147 148 142 138 132 134 137 138 128 122 124 115 102 96 85 83 84 76 63 56 52 46 40
139 126 343 346 87 121 93 122 136 138 115 108 87 97 51 72 68 119 132 146 150 148 149 142 142 143 143 148 144 135 137 142 139 131 126 126 125 114 100 92 84 76 75 70 60 48 40 36 35
130 37 6 354 60 70 128 143 126 117 129 127 114 60 62 85 119 133 132 142 143 146 151 144 143 138 141 142 141 145 143 139 135 130 129 130 121 107 101 92 81 74 62 54 45 42 38 23 27
134 117 204 57 65 68 116 144 136 130 98 78 111 81 76 106 131 137 139 142 141 143 149 144 144 141 144 146 146 139 134 129 131 131 134 131 119 112 103 96 87 69 52 44 30 22 20 4 5
135 85 78 83 56 65 115 141 148 133 103 116 121 105 107 48 119 131 138 144 141 141 145 145 145 140 137 136 139 135 131 134 134 133 135 131 123 117 115 101 84 66 34 12 4 6 356 347 335
138 237 103 85 88 106 122 149 130 115 127 117 116 116 103 131 138 139 142 143 142 141 145 143 144 143 137 138 137 139 139 144 141 143 144 141 149 147 140 138 28 1 343 331 338 337 331 324 316
276 161 105 120 117 140 137 155 144 132 138 126 135 117 130 157 146 145 144 146 148 144 146 148 149 143 140 143 144 143 147 150 153 153 151 158 160 157 178 258 293 305 309 316 323 329 335 338 332
224 179 132 142 162 138 143 139 144 146 120 125 140 154 164 168 152 145 147 150 151 152 153 153 150 151 155 152 150 147 150 154 158 156 165 175 194 222 251 280 289 306 314 320 331 329 340 339 326
175 187 175 173 177 151 154 151 144 136 146 170 165 150 150 154 150 149 152 157 159 164 167 166 163 165 165 161 159 157 159 163 165 175 190 203 228 248 271 302 299 302 300 302 304 312 322 345 359
210 211 193 186 170 156 167 166 150 153 160 154 113 129 140 153 160 161 167 170 174 174 176 174 175 174 175 175 174 179 179 184 191 200 210 224 237 251 273 269 281 304 308 307 302 324 327 311 4
179 237 172 189 173 157 165 170 156 162 186 185 167 154 153 162 169 173 176 178 180 181 181 185 182 180 183 182 183 194 194 195 203 216 225 237 257 263 278 294 296 314 315 323 330 338 13 26 1
207 186 165 169 169 161 163 166 178 176 189 181 166 158 159 171 176 179 181 182 186 190 192 192 193 192 195 195 197 198 201 208 214 218 229 236 246 251 268 285 297 286 303 313 315 324 335 342 341
221 184 185 180 174 172 154 171 172 190 110 152 157 160 170 178 186 190 191 190 192 197 198 199 197 200 200 202 204 210 214 217 226 230 231 235 245 253 261 275 269 273 281 292 307 316 316 316 313
161 128 117 145 153 158 165 166 162 191 145 144 161 170 175 184 189 189 193 199 201 202 202 197 200 202 203 209 209 215 219 224 227 232 233 232 242 251 245 267 272 265 252 279 286 294 295 299 301
141 122 109 140 153 153 159 164 208 174 161 159 172 177 183 190 187 195 196 201 202 204 203 203 201 203 207 211 214 218 224 225 229 233 234 236 230 244 248 255 257 268 254 269 275 289 279 288 284
141 150 173 175 170 156 187 220 199 172 170 176 181 186 191 192 197 202 202 208 204 205 204 206 204 204 209 212 213 219 223 228 240 254 246 240 233 233 238 241 246 237 235 251 272 302 289 292 290
181 193 198 171 191 157 198 225 200 180 184 186 188 190 196 196 205 207 208 210 207 206 204 205 205 207 208 213 216 221 227 234 245 247 242 244 234 225 230 236 241 198 219 251 240 271 290 299 297
191 203 197 189 185 191 204 225 160 192 191 196 197 198 200 201 208 208 212 214 214 212 211 209 207 214 215 215 218 222 230 235 239 242 248 251 246 239 223 219 192 195 200 187 214 290 299 309 314
195 207 196 178 174 192 222 250 231 199 207 205 205 204 207 211 212 210 212 213 214 216 213 213 209 212 208 206 213 224 227 232 240 246 252 245 246 236 220 179 169 183 198 177 226 299 310 306 318
204 212 206 161 164 197 216 245 245 208 217 210 207 210 212 215 214 215 216 213 212 213 214 212 214 213 213 214 215 218 215 231 240 241 232 228 228 217 210 186 182 184 165 166 248 295 305 295 2
212 210 196 200 184 176 198 248 243 223 221 218 220 219 218 218 215 214 216 213 212 214 213 212 213 215 217 216 209 188 170 196 213 222 220 219 222 218 202 189 181 176 176 196 187 298 313 313 3
210 214 205 189 179 226 201 259 235 227 216 220 223 220 221 219 220 217 214 214 213 213 210 211 212 214 217 210 211 209 216 223 223 211 210 210 208 200 194 190 182 175 180 178 172 165 251 274 308
221 186 198 198 201 214 222 239 259 200 221 223 222 222 221 220 216 217 215 214 213 211 209 209 209 213 213 208 210 207 220 226 218 189 189 203 190 201 199 191 180 179 185 179 178 172 202 219 272
155 131 108 157 203 221 223 213 255 219 222 230 224 222 223 219 218 219 217 212 214 210 208 206 205 210 208 209 210 210 213 213 206 192 195 198 190 185 188 186 185 187 190 190 183 192 206 207 229
194 174 179 199 202 224 228 219 241 247 236 237 236 220 218 214 216 217 213 208 210 206 204 203 203 212 209 210 211 212 210 209 203 195 199 190 195 199 198 192 192 193 197 196 188 198 201 204 215
198 198 203 208 210 219 193 222 236 240 250 252 250 238 223 218 215 217 209 205 205 205 203 201 203 208 209 209 211 211 206 209 202 200 200 201 199 202 197 199 199 198 199 195 199 211 221 219 232
186 208 214 224 56 222 209 243 279 252 251 247 243 229 219 215 214 212 209 209 207 202 204 203 203 206 210 210 208 208 203 208 205 196 193 198 198 196 191 196 193 194 197 200 201 225 236 240 241
203 188 198 213 222 230 218 231 231 222 246 244 243 228 230 221 212 211 210 207 206 205 205 203 200 204 206 207 210 208 207 202 185 209 183 196 193 205 194 185 196 199 205 207 215 219 220 226 241
179 186 211 227 227 231 237 238 216 237 248 250 246 236 235 221 213 207 206 204 205 206 205 204 204 204 203 204 204 204 203 182 157 176 199 177 191 186 206 200 205 210 208 214 220 233 241 238 244
222 216 208 215 209 224 245 232 201 232 237 242 254 254 251 222 209 206 203 202 205 206 206 207 206 205 205 204 200 198 173 155 171 194 194 168 171 179 217 219 220 219 218 219 226 239 245 241 243